Vertical_Velocity
-3 -3 -3 -2 -2 -1 -1 -2 -1 -1 -0 1 0 -1 0 1 0 -0 -1 0 0 -0 1 1 0 -1 -1 -1 -0 -1 -1 0 1 -1 0 1 -0 -0 1 0 2 2 -1 2 1 1 1
-2 -2 -3 -4 -3 -2 -1 -1 -1 -1 -1 -0 1 1 -1 0 1 -0 -0 -1 -0 0 1 0 1 -1 -2 -1 -1 -1 -2 1 -1 -0 2 0 -0 1 -1 0 -0 -1 -1 -0 0 1 0
-2 -2 -3 -3 -3 -4 -2 -2 -1 -1 -1 0 -0 0 1 -1 1 0 0 0 0 -0 0 0 1 0 -2 1 0 -0 -1 -0 -0 -0 -2 -1 2 0 -1 -1 -1 -1 0 0 -0 0 1
-2 -2 -3 -2 -2 -2 -3 -2 -2 -1 -1 -0 0 -0 0 1 -0 1 1 1 -0 -0 1 2 1 -0 -2 -1 0 0 -1 -1 -1 -1 -1 -0 1 2 0 -1 -1 -1 -0 1 0 1 0
-1 -1 -2 -2 -3 -2 -2 -2 -3 -2 -1 -1 -1 0 -0 -0 1 1 1 1 1 1 1 1 1 -0 1 -0 -1 -1 -1 -0 -1 -1 -0 1 -1 -0 0 -1 0 -2 9 -1 0 1 1
-1 -1 -1 -2 -3 -2 -2 -2 -2 -3 -1 -0 -2 -0 -1 -1 0 2 1 1 2 2 2 0 0 1 -0 1 -0 0 -1 -1 -1 -0 -1 -0 -1 -0 -1 -1 9 -3 1 -0 1 -2 -1
-1 -2 -1 -2 -2 -2 -2 -2 -3 -3 -1 -1 -0 -2 -1 -1 1 0 2 0 1 1 2 -1 1 1 -2 -2 -0 -0 -1 -1 -1 -1 1 0 -2 -1 -2 -4 -3 -1 -2 -2 -2 -2 -1
-1 -2 -2 -2 -2 -2 -2 -1 -2 -3 -2 -1 0 -1 -2 -1 1 1 2 2 1 4 -1 2 1 -1 -3 -0 -1 -1 1 -0 0 1 1 -3 -1 -2 -1 -2 -1 -1 -2 0 -2 -1 1
-1 -1 -2 -2 -1 -1 -2 -2 -1 -2 -1 -1 -1 -0 -2 -0 1 -0 1 2 1 -0 1 1 0 0 -1 -0 -2 -0 0 1 -0 0 1 -2 -0 -2 -0 -1 -1 -3 -1 -2 -2 -1 -2
-2 -2 -2 -2 -3 -2 -2 -2 -3 -3 -2 0 -3 -2 -0 1 -0 2 2 1 2 0 1 0 0 -2 -2 -2 -2 1 -0 -2 -1 3 -1 -3 -2 -0 -1 -2 -1 1 -4 -3 -2 -0 12
-3 -2 -3 -3 -1 -3 -2 -2 -2 -2 -1 -1 -2 -2 2 2 0 2 0 2 3 1 6 -2 -3 7 2 -1 4 1 -0 -2 1 1 -0 1 -2 -1 -0 1 -2 -4 -2 -3 -1 -1 -0
-2 -2 -2 -2 -2 -2 -2 -2 -3 -2 -2 -1 -0 1 -0 -0 2 0 -0 3 3 3 -8 -4 -1 0 -1 0 -3 3 0 -2 -1 0 -1 -4 -3 -3 -0 -2 -1 -2 -2 -1 -0 -1 -4
-2 -2 -2 -1 -3 -3 -2 -1 -2 -3 -2 -2 -0 -0 1 1 3 -1 2 3 4 1 8 -1 -1 1 2 1 1 -0 1 2 2 2 -1 1 -2 -2 -3 -1 -0 -1 -0 1 0 -3 3
-1 -2 -1 -1 -1 -2 -2 -2 -2 -2 -2 -2 -0 -0 -1 1 0 -1 3 4 4 -7 -4 4 2 0 3 -0 -2 -3 -1 -2 -2 0 -1 2 -8 2 2 0 2 -0 -3 -5 1 -1 23
-0 -2 -1 -1 -1 -2 -1 -0 -0 -1 -0 0 0 -1 -1 1 -1 -0 4 5 1 -3 3 0 1 0 3 -1 0 0 2 1 0 -0 1 -1 -3 1 -2 -1 -2 -3 -5 5 -1 -9 -8
-1 -1 -1 -1 -2 -1 -0 -0 0 0 1 1 1 1 -0 2 1 1 4 -7 6 5 3 -0 1 1 4 2 3 3 -1 2 -0 0 -0 -1 -4 0 -0 -3 -3 -4 -2 -2 -8 -8 -9
-1 -0 -1 -1 -2 0 -1 -1 0 0 1 1 1 1 2 1 2 4 4 1 2 3 0 -4 2 3 1 2 2 1 1 -1 -2 -2 -2 3 2 -2 -4 -4 -0 -3 -4 -3 -6 -5 -2
-0 0 -0 -1 -1 0 -1 -1 0 0 1 1 1 2 2 -1 3 5 -0 1 3 2 2 3 3 4 1 2 3 3 4 -3 -1 -2 2 7 4 -6 6 -4 -4 -6 -2 2 -0 1 -5
-0 0 -0 -1 -1 -1 -0 0 -0 -0 0 1 2 1 0 0 0 3 4 2 2 0 2 1 0 0 2 1 1 0 -2 -1 0 1 2 1 5 3 2 -10 -4 -0 3 3 -0 4 -9
0 -0 -0 -0 0 -1 1 0 1 1 0 1 1 1 1 1 0 3 3 3 2 3 2 1 1 2 3 3 4 1 -0 1 1 -1 -1 -4 2 2 3 6 4 -2 -2 -1 0 0 2
-0 -1 -1 0 1 0 -0 1 1 1 0 0 1 2 1 -0 2 1 2 3 1 3 2 2 3 1 1 1 2 3 1 -1 -1 1 -2 -2 2 -1 4 -2 0 -1 -1 -1 -6 -2 -5
-0 -1 -1 -0 0 1 -0 -0 -0 1 1 1 -0 1 1 2 1 1 2 -0 0 1 3 2 1 2 2 -0 -2 -0 -1 -1 -1 0 0 -1 1 0 -2 1 1 -4 2 -7 -5 -2 -2
-0 -1 -0 -1 0 0 0 -1 -0 0 1 1 1 -0 1 1 0 0 -2 -1 0 3 2 4 3 3 -1 -2 1 1 -0 1 1 -0 -2 -3 2 2 -1 4 2 -5 -8 -1 1 -0 -2
-0 -1 -0 0 0 -0 0 -1 -1 -1 0 -0 -0 1 1 -1 0 -0 -1 -1 -1 -1 1 1 0 0 3 -0 3 1 0 2 3 2 1 -1 1 1 -1 1 -7 5 -7 3 -1 -1 -0
-1 -1 -0 -0 -1 -1 -0 -1 -0 -0 -0 0 -0 -0 1 0 -1 -0 -0 -0 2 2 0 -1 -0 3 -1 0 1 -1 0 3 1 -0 1 3 4 2 -1 -1 6 3 -8 -2 -5 -1 -0
0 0 0 0 0 -1 -1 0 -1 -0 0 -0 0 -0 0 -0 0 -0 -0 1 1 0 1 -1 2 1 2 -1 -2 -3 -4 7 -10 -2 -1 0 2 2 2 -3 1 13 -3 2 5 -2 -7
-0 -0 -0 0 1 0 -1 -1 -0 -1 -0 -0 -0 0 -1 -1 -0 0 -0 0 1 0 -1 2 -0 1 2 -2 -1 -1 -2 3 0 2 -1 2 1 -5 3 -1 8 -1 0 6 1 1 0
-0 -1 0 -0 -0 1 0 -0 -0 -0 -0 -2 -1 -1 -1 -0 0 -1 -1 -1 -1 -1 -2 3 2 -3 -1 3 2 1 3 -5 -1 2 -1 3 -2 -1 -0 -2 2 5 1 -0 -2 -2 3
-0 -1 -1 -1 -0 -0 -0 -1 -0 -0 1 1 0 -1 -1 -1 1 0 0 1 -0 -1 0 -0 2 4 -1 0 3 2 1 -4 2 4 -6 -7 -8 -3 -6 -6 6 -3 -0 8 1 -0 -4
Height
5847 5846 5844 5843 5842 5841 5842 5843 5844 5846 5848 5850 5852 5855 5858 5861 5865 5868 5871 5874 5877 5879 5882 5884 5885 5887 5888 5889 5890 5892 5894 5895 5897 5898 5900 5903 5905 5906 5908 5910 5911 5913 5915 5916 5917 5917 5917
5843 5841 5838 5837 5836 5835 5835 5836 5837 5839 5841 5843 5845 5848 5851 5854 5858 5862 5866 5869 5873 5875 5878 5881 5883 5884 5885 5887 5888 5890 5892 5893 5895 5897 5899 5902 5902 5904 5905 5907 5909 5911 5912 5913 5915 5915 5915
5838 5836 5834 5831 5829 5829 5829 5829 5830 5831 5833 5836 5838 5840 5843 5847 5851 5855 5859 5864 5868 5871 5875 5877 5880 5881 5883 5885 5886 5888 5890 5891 5893 5895 5897 5899 5901 5902 5903 5905 5907 5908 5910 5912 5913 5913 5914
5834 5831 5829 5827 5825 5823 5823 5823 5823 5824 5826 5828 5830 5833 5836 5840 5844 5848 5853 5857 5862 5866 5870 5873 5876 5878 5880 5881 5884 5886 5888 5890 5892 5894 5895 5897 5899 5900 5902 5903 5905 5907 5909 5912 5911 5912 5912
5829 5827 5825 5822 5820 5819 5818 5817 5817 5817 5817 5819 5822 5825 5829 5832 5837 5842 5846 5851 5856 5860 5865 5869 5872 5874 5877 5879 5881 5883 5885 5887 5890 5892 5894 5895 5897 5898 5900 5902 5905 5906 5914 5909 5910 5910 5911
5824 5822 5820 5817 5815 5814 5812 5811 5810 5809 5809 5810 5814 5817 5821 5825 5829 5834 5840 5845 5850 5854 5859 5864 5867 5872 5874 5877 5878 5881 5883 5885 5888 5891 5892 5893 5895 5896 5898 5902 5909 5907 5908 5907 5908 5908 5909
5819 5817 5814 5812 5810 5809 5807 5805 5804 5803 5802 5802 5805 5809 5813 5817 5822 5827 5833 5839 5845 5850 5853 5859 5863 5866 5868 5873 5876 5879 5880 5883 5885 5888 5890 5891 5892 5895 5898 5898 5900 5903 5903 5905 5905 5906 5908
5814 5812 5810 5807 5805 5804 5802 5799 5797 5796 5795 5795 5797 5800 5804 5810 5815 5819 5825 5831 5837 5844 5847 5852 5857 5861 5864 5869 5872 5875 5878 5881 5883 5885 5887 5889 5890 5893 5895 5896 5899 5900 5902 5906 5904 5905 5906
5809 5807 5805 5803 5800 5798 5796 5794 5791 5789 5788 5788 5789 5792 5796 5801 5806 5812 5817 5824 5830 5836 5841 5847 5852 5856 5860 5865 5868 5872 5875 5877 5880 5883 5885 5886 5889 5890 5893 5895 5897 5900 5902 5901 5903 5904 5906
5805 5803 5800 5798 5796 5793 5791 5788 5785 5782 5780 5781 5782 5785 5788 5793 5800 5804 5810 5816 5823 5830 5836 5842 5847 5851 5855 5860 5863 5868 5871 5875 5877 5881 5882 5884 5887 5890 5891 5894 5895 5900 5897 5899 5902 5905 5909
5800 5798 5796 5794 5792 5789 5786 5782 5778 5775 5773 5774 5776 5778 5781 5786 5791 5797 5802 5809 5817 5824 5830 5835 5840 5847 5850 5855 5861 5863 5867 5870 5874 5878 5881 5883 5885 5887 5889 5892 5892 5895 5896 5897 5899 5902 5905
5796 5794 5792 5790 5787 5785 5781 5777 5772 5769 5767 5767 5769 5771 5775 5779 5784 5789 5795 5803 5811 5819 5822 5828 5835 5841 5845 5851 5854 5859 5863 5867 5870 5874 5876 5878 5882 5884 5887 5889 5890 5892 5894 5896 5899 5901 5906
5792 5790 5788 5786 5783 5781 5777 5772 5768 5764 5762 5762 5764 5765 5768 5772 5778 5783 5789 5797 5805 5811 5819 5825 5830 5837 5841 5846 5851 5855 5860 5864 5868 5870 5873 5877 5880 5882 5884 5886 5888 5890 5893 5900 5903 5904 5905
5789 5786 5784 5782 5780 5777 5774 5769 5765 5762 5759 5758 5759 5761 5763 5767 5772 5777 5784 5792 5799 5804 5813 5820 5826 5831 5836 5841 5846 5851 5855 5859 5863 5867 5869 5874 5877 5880 5882 5884 5886 5887 5892 5898 5901 5903 5905
5786 5783 5781 5779 5777 5774 5771 5767 5763 5760 5757 5756 5756 5757 5759 5763 5768 5773 5780 5787 5792 5799 5809 5816 5822 5828 5832 5837 5843 5846 5851 5855 5860 5864 5867 5869 5874 5876 5877 5880 5883 5884 5886 5893 5895 5896 5897
5783 5780 5778 5776 5775 5772 5769 5765 5761 5758 5756 5754 5754 5754 5756 5760 5764 5770 5776 5781 5790 5798 5805 5811 5818 5824 5828 5834 5839 5843 5846 5851 5855 5860 5862 5865 5869 5872 5873 5875 5878 5879 5884 5887 5890 5893 5894
5780 5778 5776 5774 5772 5770 5767 5763 5760 5757 5755 5753 5753 5753 5754 5758 5763 5768 5775 5780 5787 5794 5801 5807 5814 5820 5824 5829 5835 5839 5843 5848 5851 5855 5857 5862 5865 5867 5869 5870 5873 5876 5879 5882 5887 5889 5891
5778 5776 5774 5772 5770 5768 5765 5762 5759 5756 5754 5752 5752 5753 5754 5758 5763 5767 5773 5778 5785 5791 5797 5804 5811 5816 5821 5826 5831 5836 5841 5843 5847 5850 5853 5858 5860 5861 5866 5866 5869 5872 5876 5880 5882 5886 5885
5775 5773 5772 5770 5768 5767 5764 5762 5759 5756 5754 5753 5753 5754 5755 5759 5763 5767 5773 5778 5783 5789 5794 5800 5806 5812 5817 5822 5828 5832 5835 5839 5843 5846 5849 5853 5856 5857 5860 5861 5865 5866 5870 5873 5877 5881 5880
5773 5771 5770 5768 5767 5765 5763 5761 5759 5757 5755 5755 5755 5756 5757 5759 5763 5766 5770 5776 5781 5787 5792 5797 5803 5809 5814 5819 5823 5827 5831 5834 5838 5840 5843 5846 5850 5853 5856 5859 5861 5862 5864 5867 5871 5874 5877
5772 5770 5768 5767 5765 5764 5762 5761 5759 5758 5757 5756 5756 5757 5758 5760 5763 5766 5770 5775 5780 5785 5790 5795 5800 5805 5810 5814 5819 5823 5827 5830 5832 5834 5837 5840 5844 5846 5849 5852 5854 5857 5859 5861 5862 5866 5870
5771 5769 5767 5766 5764 5763 5761 5760 5759 5758 5757 5757 5756 5758 5759 5761 5763 5766 5770 5774 5778 5782 5787 5791 5796 5800 5805 5809 5814 5818 5822 5825 5827 5829 5832 5834 5838 5840 5842 5845 5847 5849 5851 5854 5856 5858 5861
5771 5769 5767 5765 5763 5762 5761 5759 5758 5757 5756 5756 5756 5756 5758 5760 5763 5765 5768 5771 5775 5779 5783 5788 5792 5797 5801 5805 5809 5814 5817 5821 5823 5824 5826 5829 5833 5835 5838 5841 5842 5841 5845 5850 5851 5853 5857
5771 5769 5767 5765 5763 5761 5760 5758 5757 5757 5756 5755 5755 5756 5756 5758 5760 5762 5765 5768 5771 5775 5779 5783 5787 5791 5796 5800 5805 5809 5813 5816 5818 5821 5823 5825 5828 5831 5834 5834 5834 5839 5842 5843 5846 5849 5853
5771 5768 5766 5764 5762 5760 5759 5757 5756 5755 5754 5753 5753 5754 5754 5755 5757 5759 5762 5765 5768 5771 5774 5777 5781 5786 5790 5795 5800 5803 5808 5810 5813 5816 5818 5821 5824 5827 5828 5831 5835 5834 5836 5839 5840 5844 5848
5771 5769 5766 5764 5761 5759 5757 5756 5755 5753 5752 5751 5751 5751 5751 5752 5754 5755 5757 5760 5763 5765 5768 5770 5775 5779 5784 5788 5793 5796 5803 5807 5806 5809 5812 5815 5818 5821 5823 5825 5829 5833 5831 5835 5837 5840 5840
5771 5769 5766 5764 5762 5759 5757 5755 5753 5752 5751 5750 5749 5748 5749 5749 5750 5751 5753 5755 5758 5760 5762 5766 5768 5773 5778 5782 5786 5790 5795 5797 5800 5803 5805 5807 5810 5812 5817 5819 5823 5821 5826 5830 5831 5837 5834
5771 5769 5766 5764 5761 5759 5757 5754 5752 5750 5749 5748 5747 5746 5745 5745 5746 5746 5748 5750 5752 5754 5757 5760 5764 5766 5771 5775 5779 5782 5785 5787 5791 5794 5796 5800 5801 5805 5807 5810 5814 5813 5820 5823 5823 5825 5828
5771 5768 5766 5763 5761 5758 5756 5754 5751 5749 5747 5746 5745 5743 5742 5742 5742 5742 5743 5745 5747 5749 5752 5754 5757 5761 5763 5768 5771 5773 5777 5779 5783 5786 5786 5790 5792 5795 5796 5800 5801 5805 5809 5814 5815 5816 5818